DAL2267 KLAX-KSFO

Flight info

Callsign DAL2267
Flight time 0h 58m
Altitude 32000
Route SUMMR2 STOKD SERFR SERFR4
Aircraft B738/M-SDE2E3FGHIRWXY/LB1

Departure

Time 2026-04-25 19:30
Airport Los Angeles International Airport (KLAX)

Arrival

Time 2026-04-25 20:29
Airport San Francisco International Airport (KSFO)
Time Latitude Longitude Altitude Speed Heading
2026-04-25 17:54 33.94667 -118.40484 125 ft 0 kts 117°
2026-04-25 19:05 33.94669 -118.40490 134 ft 2 kts 117°
2026-04-25 19:06 33.94676 -118.40507 119 ft 2 kts 117°
2026-04-25 19:06 33.94690 -118.40543 120 ft 2 kts 85°
2026-04-25 19:06 33.94685 -118.40557 119 ft 1 kts 27°
2026-04-25 19:07 33.94681 -118.40560 119 ft 0 kts 21°
2026-04-25 19:20 33.94685 -118.40564 125 ft 2 kts 328°
2026-04-25 19:20 33.94700 -118.40572 122 ft 0 kts 344°
2026-04-25 19:25 33.94717 -118.40577 122 ft 5 kts 346°
2026-04-25 19:26 33.94767 -118.40588 123 ft 9 kts 351°
2026-04-25 19:26 33.94837 -118.40596 123 ft 11 kts 12°
2026-04-25 19:26 33.94872 -118.40510 125 ft 13 kts 79°
2026-04-25 19:26 33.94886 -118.40390 125 ft 16 kts 82°
2026-04-25 19:27 33.94900 -118.40256 123 ft 13 kts 83°
2026-04-25 19:27 33.94912 -118.40197 123 ft 9 kts 55°
2026-04-25 19:27 33.94923 -118.40184 123 ft 0 kts 36°
2026-04-25 19:29 33.94930 -118.40178 124 ft 6 kts 31°
2026-04-25 19:29 33.94976 -118.40171 123 ft 7 kts 343°
2026-04-25 19:29 33.95007 -118.40214 123 ft 9 kts 290°
2026-04-25 19:30 33.95005 -118.40314 123 ft 17 kts 263°
2026-04-25 19:30 33.94961 -118.40722 121 ft 90 kts 263°
2026-04-25 19:30 33.94848 -118.41772 132 ft 160 kts 260°
2026-04-25 19:30 33.94730 -118.43222 776 ft 175 kts 264°
2026-04-25 19:31 33.94669 -118.44648 2042 ft 163 kts 263°
2026-04-25 19:31 33.94544 -118.46017 2915 ft 169 kts 259°
2026-04-25 19:31 33.94354 -118.47531 3376 ft 193 kts 263°
2026-04-25 19:31 33.94283 -118.49176 4068 ft 200 kts 265°
2026-04-25 19:32 33.94226 -118.50866 4739 ft 204 kts 265°
2026-04-25 19:32 33.94108 -118.52555 4961 ft 204 kts 263°
2026-04-25 19:32 33.93975 -118.54217 4983 ft 197 kts 263°
2026-04-25 19:32 33.93929 -118.54771 4994 ft 198 kts 263°
2026-04-25 19:33 33.93699 -118.57630 5032 ft 223 kts 264°
2026-04-25 19:33 33.93544 -118.59596 5008 ft 243 kts 264°
2026-04-25 19:33 33.93383 -118.61641 4988 ft 245 kts 264°
2026-04-25 19:33 33.93222 -118.63678 4981 ft 245 kts 264°
2026-04-25 19:34 33.93055 -118.65798 4998 ft 261 kts 264°
2026-04-25 19:34 33.92889 -118.67954 4990 ft 263 kts 264°
2026-04-25 19:34 33.92719 -118.70144 4990 ft 262 kts 264°
2026-04-25 19:34 33.92551 -118.72317 5005 ft 260 kts 264°
2026-04-25 19:35 33.92382 -118.74494 5183 ft 265 kts 264°
2026-04-25 19:35 33.92210 -118.76703 6113 ft 262 kts 265°
2026-04-25 19:35 33.92039 -118.78889 7026 ft 264 kts 264°
2026-04-25 19:35 33.91865 -118.81101 7846 ft 266 kts 264°
2026-04-25 19:36 33.91696 -118.83333 8735 ft 268 kts 265°
2026-04-25 19:36 33.91692 -118.85589 9606 ft 271 kts 270°
2026-04-25 19:36 33.91774 -118.87757 10364 ft 275 kts 270°
2026-04-25 19:36 33.91872 -118.90148 10638 ft 298 kts 270°
2026-04-25 19:37 33.91965 -118.92736 10979 ft 317 kts 270°
2026-04-25 19:37 33.92052 -118.95416 11775 ft 323 kts 269°
2026-04-25 19:37 33.92135 -118.98121 12717 ft 322 kts 268°
2026-04-25 19:37 33.92299 -119.00813 13629 ft 326 kts 275°
2026-04-25 19:38 33.93064 -119.03394 14300 ft 341 kts 291°
2026-04-25 19:38 33.94305 -119.05878 14937 ft 348 kts 295°
2026-04-25 19:38 33.95630 -119.08354 15589 ft 352 kts 296°
2026-04-25 19:38 33.96963 -119.10851 16263 ft 355 kts 296°
2026-04-25 19:39 33.98285 -119.13376 16919 ft 358 kts 296°
2026-04-25 19:39 33.99596 -119.15910 17553 ft 362 kts 296°
2026-04-25 19:39 34.01012 -119.18446 18161 ft 372 kts 304°
2026-04-25 19:39 34.03003 -119.20535 18712 ft 385 kts 317°
2026-04-25 19:40 34.05204 -119.22418 19269 ft 390 kts 318°
2026-04-25 19:40 34.07446 -119.24295 19792 ft 394 kts 318°
2026-04-25 19:40 34.09708 -119.26192 20303 ft 398 kts 318°
2026-04-25 19:40 34.11989 -119.28119 20817 ft 401 kts 317°
2026-04-25 19:41 34.14277 -119.30067 21328 ft 404 kts 317°
2026-04-25 19:41 34.16583 -119.32043 21826 ft 408 kts 317°
2026-04-25 19:41 34.18908 -119.34044 22322 ft 411 kts 317°
2026-04-25 19:41 34.19667 -119.34698 22484 ft 412 kts 316°
2026-04-25 19:42 34.23575 -119.38072 23269 ft 418 kts 316°
2026-04-25 19:42 34.25955 -119.40129 23715 ft 422 kts 316°
2026-04-25 19:42 34.28347 -119.42196 24131 ft 424 kts 316°
2026-04-25 19:42 34.30752 -119.44275 24563 ft 426 kts 316°
2026-04-25 19:43 34.33167 -119.46365 24974 ft 428 kts 316°
2026-04-25 19:43 34.35590 -119.48464 25368 ft 430 kts 316°
2026-04-25 19:43 34.38033 -119.50581 25762 ft 432 kts 316°
2026-04-25 19:43 34.40490 -119.52713 26161 ft 434 kts 316°
2026-04-25 19:44 34.42805 -119.55018 26537 ft 429 kts 308°
2026-04-25 19:44 34.44906 -119.57523 26908 ft 428 kts 306°
2026-04-25 19:44 34.46966 -119.60131 27287 ft 429 kts 305°
2026-04-25 19:44 34.48351 -119.61908 27580 ft 429 kts 305°
2026-04-25 19:45 34.51079 -119.65392 28136 ft 430 kts 305°
2026-04-25 19:45 34.52451 -119.67123 28523 ft 428 kts 305°
2026-04-25 19:45 34.54515 -119.69704 29120 ft 425 kts 306°
2026-04-25 19:45 34.56577 -119.72264 29641 ft 424 kts 306°
2026-04-25 19:46 34.58658 -119.74840 30081 ft 424 kts 306°
2026-04-25 19:46 34.60721 -119.77390 30517 ft 423 kts 305°
2026-04-25 19:46 34.62770 -119.79918 31019 ft 419 kts 305°
2026-04-25 19:46 34.64815 -119.82447 31373 ft 420 kts 306°
2026-04-25 19:47 34.66872 -119.84996 31652 ft 422 kts 305°
2026-04-25 19:47 34.68901 -119.87511 31998 ft 422 kts 306°
2026-04-25 19:47 34.73049 -119.92659 31970 ft 425 kts 306°
2026-04-25 19:48 34.77159 -119.97757 31977 ft 421 kts 306°
2026-04-25 19:48 34.81247 -120.02841 32007 ft 420 kts 306°
2026-04-25 19:49 34.84646 -120.07080 31996 ft 422 kts 306°
2026-04-25 19:49 34.89459 -120.13087 31991 ft 425 kts 306°
2026-04-25 19:50 34.95627 -120.20798 32015 ft 425 kts 306°
2026-04-25 19:51 34.99761 -120.25974 32009 ft 426 kts 306°
2026-04-25 19:51 35.03899 -120.31166 32001 ft 427 kts 306°
2026-04-25 19:52 35.08039 -120.36367 32004 ft 427 kts 306°
2026-04-25 19:52 35.12335 -120.41433 31994 ft 430 kts 310°
2026-04-25 19:53 35.16787 -120.46338 32000 ft 431 kts 310°
2026-04-25 19:53 35.21203 -120.51227 31994 ft 430 kts 310°
2026-04-25 19:54 35.25532 -120.56076 32009 ft 429 kts 309°
2026-04-25 19:54 35.29936 -120.61036 31990 ft 430 kts 309°
2026-04-25 19:55 35.34339 -120.66004 31997 ft 430 kts 309°
2026-04-25 19:55 35.38711 -120.70941 31987 ft 430 kts 309°
2026-04-25 19:56 35.43105 -120.75911 31984 ft 430 kts 310°
2026-04-25 19:56 35.47494 -120.80882 32015 ft 429 kts 309°
2026-04-25 19:57 35.52131 -120.85593 32011 ft 435 kts 316°
2026-04-25 19:57 35.57010 -120.90005 32024 ft 436 kts 316°
2026-04-25 19:58 35.61855 -120.94405 32013 ft 436 kts 316°
2026-04-25 19:58 35.66711 -120.98895 32008 ft 437 kts 316°
2026-04-25 19:59 35.71555 -121.03411 31992 ft 437 kts 316°
2026-04-25 19:59 35.76406 -121.07944 31999 ft 438 kts 316°
2026-04-25 20:00 35.81273 -121.12499 31996 ft 439 kts 316°
2026-04-25 20:00 35.86142 -121.17061 31989 ft 440 kts 316°
2026-04-25 20:01 35.93450 -121.23921 31990 ft 440 kts 316°
2026-04-25 20:01 35.98292 -121.28476 31986 ft 439 kts 316°
2026-04-25 20:02 36.03137 -121.33040 32002 ft 436 kts 316°
2026-04-25 20:02 36.08031 -121.37488 31971 ft 440 kts 322°
2026-04-25 20:03 36.13359 -121.41259 31991 ft 442 kts 325°
2026-04-25 20:03 36.18773 -121.44911 31966 ft 442 kts 326°
2026-04-25 20:04 36.24117 -121.48571 31997 ft 442 kts 325°
2026-04-25 20:04 36.29504 -121.52318 31975 ft 443 kts 325°
2026-04-25 20:05 36.34877 -121.56080 31980 ft 444 kts 325°
2026-04-25 20:05 36.40233 -121.59838 31994 ft 445 kts 325°
2026-04-25 20:06 36.45528 -121.63551 31975 ft 430 kts 325°
2026-04-25 20:06 36.50709 -121.67194 31995 ft 427 kts 325°
2026-04-25 20:07 36.53303 -121.69025 31725 ft 430 kts 326°
2026-04-25 20:07 36.55895 -121.70852 31442 ft 424 kts 326°
2026-04-25 20:07 36.58454 -121.72656 31044 ft 421 kts 326°
2026-04-25 20:07 36.60856 -121.74679 30586 ft 415 kts 317°
2026-04-25 20:08 36.63292 -121.76637 29972 ft 418 kts 329°
2026-04-25 20:08 36.65896 -121.78147 29271 ft 417 kts 334°
2026-04-25 20:08 36.68591 -121.79556 28669 ft 412 kts 334°
2026-04-25 20:08 36.71169 -121.80924 28121 ft 405 kts 334°
2026-04-25 20:09 36.73726 -121.82350 27570 ft 399 kts 333°
2026-04-25 20:09 36.76229 -121.83807 27026 ft 394 kts 332°
2026-04-25 20:09 36.78678 -121.85272 26495 ft 388 kts 332°
2026-04-25 20:09 36.81093 -121.86736 25974 ft 383 kts 332°
2026-04-25 20:10 36.83468 -121.88184 25469 ft 377 kts 332°
2026-04-25 20:10 36.85818 -121.89617 24989 ft 375 kts 333°
2026-04-25 20:10 36.88153 -121.91041 24649 ft 372 kts 333°
2026-04-25 20:10 36.90469 -121.92452 24360 ft 368 kts 333°
2026-04-25 20:11 36.92762 -121.93850 24043 ft 365 kts 333°
2026-04-25 20:11 36.95032 -121.95233 23749 ft 361 kts 334°
2026-04-25 20:11 36.97445 -121.96167 22817 ft 372 kts 354°
2026-04-25 20:11 37.00072 -121.95883 21704 ft 388 kts 18°
2026-04-25 20:12 37.02458 -121.94343 21142 ft 386 kts 40°
2026-04-25 20:12 37.04200 -121.91859 20775 ft 378 kts 61°
2026-04-25 20:12 37.05071 -121.88808 20375 ft 371 kts 83°
2026-04-25 20:12 37.05148 -121.87770 20238 ft 370 kts 90°
2026-04-25 20:13 37.04004 -121.82706 19493 ft 364 kts 124°
2026-04-25 20:13 37.02308 -121.80378 19109 ft 361 kts 142°
2026-04-25 20:13 37.00168 -121.78820 18715 ft 359 kts 153°
2026-04-25 20:13 36.97915 -121.77495 18295 ft 357 kts 154°
2026-04-25 20:14 36.95668 -121.76186 17839 ft 354 kts 154°
2026-04-25 20:14 36.93453 -121.74865 17389 ft 351 kts 153°
2026-04-25 20:14 36.91233 -121.73601 16899 ft 350 kts 161°
2026-04-25 20:14 36.88820 -121.73205 16411 ft 351 kts 183°
2026-04-25 20:15 36.86453 -121.73911 15997 ft 350 kts 202°
2026-04-25 20:15 36.84331 -121.75396 15551 ft 350 kts 217°
2026-04-25 20:15 36.82709 -121.77600 15057 ft 352 kts 239°
2026-04-25 20:15 36.81890 -121.80444 14770 ft 347 kts 262°
2026-04-25 20:16 36.81971 -121.83414 14532 ft 343 kts 283°
2026-04-25 20:16 36.82858 -121.86142 14290 ft 338 kts 303°
2026-04-25 20:16 36.84352 -121.88401 14054 ft 339 kts 319°
2026-04-25 20:16 36.86325 -121.90026 13829 ft 341 kts 333°
2026-04-25 20:17 36.88467 -121.91321 13569 ft 341 kts 335°
2026-04-25 20:17 36.90610 -121.92571 13292 ft 339 kts 335°
2026-04-25 20:17 36.92744 -121.93844 13027 ft 339 kts 334°
2026-04-25 20:17 36.94859 -121.95127 12764 ft 338 kts 334°
2026-04-25 20:18 36.97026 -121.96237 12497 ft 334 kts 341°
2026-04-25 20:18 36.99186 -121.97080 12219 ft 323 kts 343°
2026-04-25 20:18 37.01320 -121.97849 11946 ft 310 kts 343°
2026-04-25 20:18 37.03334 -121.98576 11686 ft 300 kts 343°
2026-04-25 20:19 37.05315 -121.99309 11421 ft 294 kts 342°
2026-04-25 20:19 37.07270 -122.00047 11180 ft 294 kts 342°
2026-04-25 20:19 37.09233 -122.00799 10942 ft 296 kts 342°
2026-04-25 20:19 37.11217 -122.01566 10701 ft 299 kts 342°
2026-04-25 20:20 37.13206 -122.02339 10460 ft 301 kts 342°
2026-04-25 20:20 37.15212 -122.03122 10215 ft 302 kts 342°
2026-04-25 20:20 37.17227 -122.03909 9980 ft 302 kts 341°
2026-04-25 20:20 37.19215 -122.04687 9795 ft 296 kts 341°
2026-04-25 20:21 37.21147 -122.05444 9422 ft 291 kts 341°
2026-04-25 20:21 37.23080 -122.06203 8969 ft 289 kts 341°
2026-04-25 20:21 37.24995 -122.06954 8514 ft 287 kts 341°
2026-04-25 20:21 37.26885 -122.07695 8099 ft 283 kts 341°
2026-04-25 20:22 37.28735 -122.08422 7718 ft 279 kts 341°
2026-04-25 20:22 37.29360 -122.08668 7602 ft 278 kts 341°
2026-04-25 20:22 37.32404 -122.09868 7015 ft 272 kts 341°
2026-04-25 20:22 37.34200 -122.10576 6640 ft 269 kts 341°
2026-04-25 20:23 37.35977 -122.11277 6279 ft 266 kts 341°
2026-04-25 20:23 37.37729 -122.11967 5936 ft 262 kts 342°
2026-04-25 20:23 37.39476 -122.12579 5606 ft 260 kts 344°
2026-04-25 20:23 37.41206 -122.13148 5317 ft 261 kts 344°
2026-04-25 20:24 37.42970 -122.13728 5001 ft 262 kts 344°
2026-04-25 20:24 37.44739 -122.14313 4681 ft 263 kts 343°
2026-04-25 20:24 37.46502 -122.14901 4365 ft 260 kts 343°
2026-04-25 20:24 37.48236 -122.15482 4041 ft 256 kts 342°
2026-04-25 20:25 37.49946 -122.16057 3727 ft 252 kts 342°
2026-04-25 20:25 37.51619 -122.16620 3422 ft 247 kts 342°
2026-04-25 20:25 37.53233 -122.17262 3116 ft 239 kts 327°
2026-04-25 20:25 37.54310 -122.18718 2871 ft 222 kts 293°
2026-04-25 20:26 37.54966 -122.20453 2616 ft 217 kts 295°
2026-04-25 20:26 37.55681 -122.22106 2393 ft 209 kts 296°
2026-04-25 20:26 37.56328 -122.23629 2216 ft 190 kts 295°
2026-04-25 20:26 37.56922 -122.25052 1965 ft 176 kts 296°
2026-04-25 20:27 37.57467 -122.26361 1750 ft 161 kts 295°
2026-04-25 20:27 37.57973 -122.27580 1528 ft 155 kts 295°
2026-04-25 20:27 37.58478 -122.28789 1323 ft 157 kts 294°
2026-04-25 20:27 37.58982 -122.30006 1087 ft 156 kts 294°
2026-04-25 20:28 37.59485 -122.31215 862 ft 158 kts 294°
2026-04-25 20:28 37.59986 -122.32416 664 ft 150 kts 295°
2026-04-25 20:28 37.60453 -122.33537 431 ft 140 kts 294°
2026-04-25 20:28 37.60896 -122.34597 267 ft 134 kts 295°
2026-04-25 20:29 37.61331 -122.35647 94 ft 138 kts 295°
2026-04-25 20:29 37.61767 -122.36698 19 ft 117 kts 295°
2026-04-25 20:29 37.62012 -122.37288 18 ft 44 kts 299°
2026-04-25 20:29 37.62120 -122.37546 17 ft 30 kts 296°
2026-04-25 20:30 37.62106 -122.37737 20 ft 16 kts 230°
2026-04-25 20:30 37.62090 -122.37761 21 ft 0 kts 227°
2026-04-25 20:36 37.62089 -122.37761 21 ft 1 kts 227°
2026-04-25 20:36 37.62066 -122.37791 23 ft 13 kts 226°
2026-04-25 20:36 37.61990 -122.37901 21 ft 18 kts 231°
2026-04-25 20:37 37.61918 -122.37937 20 ft 11 kts 163°
2026-04-25 20:37 37.61839 -122.37889 18 ft 14 kts 157°
2026-04-25 20:37 37.61738 -122.37898 17 ft 16 kts 210°
2026-04-25 20:37 37.61639 -122.37973 15 ft 18 kts 213°
2026-04-25 20:38 37.61525 -122.38057 13 ft 19 kts 205°
2026-04-25 20:38 37.61416 -122.38127 14 ft 13 kts 209°
2026-04-25 20:38 37.61353 -122.38192 14 ft 10 kts 256°
2026-04-25 20:38 37.61369 -122.38234 14 ft 1 kts 323°
2026-04-25 20:39 37.61384 -122.38228 13 ft 6 kts 10°
2026-04-25 20:39 37.61429 -122.38234 13 ft 5 kts 352°
2026-04-25 20:39 37.61432 -122.38234 13 ft 0 kts 352°
2026-04-25 20:46 37.61423 -122.38312 14 ft 0 kts 352°
2026-04-25 20:47 37.61432 -122.38236 13 ft 0 kts 352°